Weather History for PAMC - February, 2013

Change the Weather History Date:

Friday, February 15, 2013

  Actual Average Record
Temperature  
Mean Temperature -10 °F -  
Max Temperature 8 °F 13 °F 44 °F (1944)
Min Temperature -27 °F -9 °F -49 °F (1950)
Degree Days  
Heating Degree Days 75 63  
Month to date heating degree days 891 989  
Since 1 July heating degree days 9618 9448  
Cooling Degree Days 0    
Month to date cooling degree days 0  
Year to date cooling degree days 0  
Moisture  
Dew Point -18 °F    
Average Humidity 0    
Maximum Humidity 0    
Minimum Humidity 0    
Precipitation  
Precipitation T in 0.04 in 1.04 in (1956)
Month to date precipitation 0.57 0.50  
Year to date precipitation 3.09 1.59  
Snow  
Snow 0.10 in 0.50 in 10.30 in (1956)
Month to date snowfall 7.8 6.9  
Since 1 July snowfall 63.6 73.8  
Snow Depth 43.00 in    
Sea Level Pressure  
Sea Level Pressure 30.01 in    
Wind  
Wind Speed 2 mph (SSW)    
Max Wind Speed 14 mph    
Max Gust Speed 18 mph    
Visibility 9 miles    
Events Snow    
T = Trace of Precipitation, MM = Missing Value Source: NWS Daily Summary

Daily Weather History Graph

Daily Weather History Graph

Search for Another Location

Airport or City:

Trip Planner

Search our weather history database for the weather conditions in past years. The results will help you decide how hot, cold, wet, or windy it might be!

Date:

Astronomy

Feb. 15, 2013 Rise Set
Actual Time 9:10 AM AKST 6:03 PM AKST
Civil Twilight 8:21 AM AKST 6:52 PM AKST
Nautical Twilight 7:28 AM AKST 7:46 PM AKST
Astronomical Twilight 6:35 AM AKST 8:39 PM AKST
Moon 9:45 AM AKST (2/15) 1:17 AM AKST (2/15)
Length of Visible Light 10h 30m
Length of Day
8h 53m
Waxing Crescent, 31% of the Moon is Illuminated
Feb 15
Waxing Crescent
Feb 17
First Quarter
Feb 25
Full
Mar 4
Last Quarter
Mar 11
New

Hourly Weather History & Observations

Time (AKST) Temp. Windchill Dew Point Humidity Pressure Visibility Wind Dir Wind Speed Gust Speed Precip Events Conditions
12:10 AM 8.6 °F -1.3 °F 1.4 °F 73% 29.66 in 3.0 mi WNW 5.8 mph - 0.00 in Snow Light Snow
12:53 AM 6.1 °F -6.8 °F -0.0 °F 76% 29.72 in 8.0 mi West 8.1 mph - 0.00 in Snow Light Snow
1:53 AM 1.9 °F -13.8 °F -6.0 °F 69% 29.78 in 10.0 mi WSW 10.4 mph - 0.00 in   Overcast
3:31 AM -5.8 °F -23.4 °F -13.0 °F 71% 29.82 in 10.0 mi WSW 10.4 mph - N/A   Scattered Clouds
3:53 AM -6.0 °F -18.6 °F -13.0 °F 72% 29.87 in 10.0 mi SW 5.8 mph - N/A   Partly Cloudy
4:53 AM -9.0 °F -22.3 °F -16.1 °F 71% 29.90 in 10.0 mi SW 5.8 mph - N/A   Clear
5:53 AM -11.9 °F -21.5 °F -17.0 °F 78% 29.94 in 10.0 mi South 3.5 mph - N/A   Clear
6:53 AM -18.0 °F - -23.1 °F 78% 29.97 in 10.0 mi Calm Calm - N/A   Clear
7:53 AM -23.1 °F - -27.0 °F 82% 29.99 in 10.0 mi Calm Calm - N/A   Partly Cloudy
8:53 AM -24.0 °F - -31.0 °F 70% 30.01 in 10.0 mi Calm Calm - N/A   Partly Cloudy
9:53 AM -24.0 °F - -29.0 °F 77% 30.03 in 10.0 mi Calm Calm - N/A   Clear
10:53 AM -18.0 °F - -24.0 °F 74% 30.05 in 10.0 mi Calm Calm - N/A   Clear
11:53 AM -9.0 °F - -16.1 °F 71% 30.06 in 10.0 mi Calm Calm - N/A   Partly Cloudy
12:53 PM -6.0 °F -14.7 °F -14.1 °F 68% 30.07 in 10.0 mi East 3.5 mph - N/A   Partly Cloudy
1:53 PM -4.0 °F - -13.0 °F 65% 30.08 in 10.0 mi Calm Calm - N/A   Partly Cloudy
2:53 PM -2.9 °F - -13.0 °F 62% 30.09 in 10.0 mi Calm Calm - N/A   Partly Cloudy
3:53 PM -2.0 °F - -11.0 °F 66% 30.09 in 10.0 mi Calm Calm - N/A   Partly Cloudy
4:53 PM -2.0 °F -12.2 °F -11.0 °F 66% 30.09 in 10.0 mi ESE 4.6 mph - N/A   Clear
5:53 PM -5.1 °F -13.6 °F -13.0 °F 69% 30.10 in 10.0 mi SSE 3.5 mph - N/A   Clear
6:53 PM -11.0 °F -20.4 °F -16.1 °F 78% 30.11 in 10.0 mi East 3.5 mph - N/A   Clear
7:53 PM -17.0 °F - -20.9 °F 82% 30.12 in 10.0 mi Calm Calm - N/A   Clear
8:53 PM -22.0 °F - -27.0 °F 77% 30.12 in 10.0 mi Calm Calm - N/A   Mostly Cloudy
9:53 PM -20.9 °F - -26.0 °F 77% 30.13 in 10.0 mi Calm Calm - N/A   Mostly Cloudy
10:09 PM -20.2 °F - -27.4 °F 69% 30.08 in 4.0 mi Calm Calm - N/A   Haze
10:53 PM -16.1 °F - -22.0 °F 74% 30.13 in 10.0 mi Calm Calm - N/A   Overcast
11:53 PM -13.0 °F - -18.9 °F 75% 30.15 in 5.0 mi Calm Calm - 0.00 in Snow Light Snow